Regional Weather Roundup
Issued by NWS Goodland, KS

Home | Current Version | Previous Version | Graphics & Text | Print | Product List | Glossary On
Versions: 1 2 3 4 5 6 7 8 9 10 11 12 13 14 15 16 17 18 19 20 21 22 23 24 25 26 27 28 29 30 31 32 33 34 35 36 37 38 39 40 41 42 43 44 45 46 47 48 49 50
000
ASUS43 KGLD 221859
RWRGLD

GOODLAND FORECAST AREA HOURLY WEATHER ROUNDUP
NATIONAL WEATHER SERVICE GOODLAND KS
100 PM MDT FRI SEP 22 2017

...OFFICIAL OBSERVATIONS...

CITY           SKY/WX    TMP DP  RH WIND       PRES   REMARKS
GOODLAND KS    PTSUNNY   88  46  23 S29G39    29.77F
HILL CITY KS   PTSUNNY   97  57  26 S24G37    29.77F
IMPERIAL NEB   MOSUNNY   84  41  21 N9        29.76F
MCCOOK NEB     MOSUNNY   98  52  21 SW29G41   29.72F
AKRON CO       CLOUDY    78  36  21 SE10      29.80F
BURLINGTON CO  CLOUDY    90  40  17 S29G43    29.81F
LIMON CO         N/A    N/A N/A N/A MISG      29.84F
$$

...UNOFFICIAL OBSERVATIONS...

CITY           SKY/WX    TMP DP  RH WIND       PRES   REMARKS
LENORA KS        N/A     96  32  10 MISG        N/A
NORTON KS      MOSUNNY   95  45  17 S26G44    29.75F
KIT CARSON CO    N/A     86  41  20 MISG        N/A
YUMA CO        FAIR      73  28  19 E7        29.78F
$$




USA.gov is the U.S. government's official web portal to all federal, state and local government web resources and services.